Location: Buckhorn Peak
(37.6641°N, 120.1241°W)
Time: 01:13:21
(UTC+00:00)

BlueWalker 3 - Pass Details

Date: 23 December 2025
Orbit: 452 x 463 km, 53.2° (Epoch: 13 January)

Event Time Altitude Azimuth Distance (km) Brightness Sun altitude
Exits shadow 12:20:10 11° 83° (E) 1,522 5.1 -33.3°
Drops below altitude 10° 12:20:23 10° 80° (E) 1,586 5.2 -33.2°
Sets 12:22:56 0° 62° (ENE) 2,465 6.2 -32.7°
